sat.trackr.live / text

‹ back to catalog

STARLINK-32227

NORAD 60361 · 2024-138G

PAYLOAD ACTIVE UNKNOWN

§ Identity

Operator
Country
US
Launch date
2024-08-04
Launch site
AFWTR
Launch vehicle
Mass (kg)
RCS (m²)

Purposes: comms

External: N2YO · Heavens-Above · Gunter

§ Orbital elements

Epoch: 2026-05-25T04:06:50.224032Z

Period
94.11 min
Inclination
53.1616°
Eccentricity
0.0001136
Mean motion
15.30193098 rev/d
Perigee alt
474.5 km
Apogee alt
476.0 km
Semi-major
6,853.4 km
B*
2.3171e-5
RAAN
314.6042°
Arg perigee
90.0838°
Mean anomaly
270.0293°
Rev number
10,234

§ Raw data

STARLINK-322271 60361U 24138G   26145.17141463  .00000327  00000+0  23171-4 0  99982 60361  53.1616 314.6042 0001136  90.0838 270.0293 15.30193098102341

JSON: /api/v1/satellites/60361 · /tle

For live sub-satellite position, see the globe view (requires WebGL).

§ Visibility from observer

Set your observer location to see the next 7 days of passes ≥ 10°. The values pass through the URL so the page stays shareable.

No JS? Fill the form by hand. The geolocation button needs JavaScript.